Location: Unspecified
(54.1780°N, 0.0000°E)
Time: 05:30:56
(UTC+00:00)

Transit 2A - Pass Details

Date: 21 June 2019
Orbit: 600 x 959 km, 66.7° (Epoch: 13 October)

Event Time Altitude Azimuth Distance (km) Brightness Sun altitude
Rises 04:28:19 0° 284° (WNW) 3,629 9.1 6.3°
Reaches altitude 10° 04:31:24 10° 297° (WNW) 2,660 8.5 6.7°
Maximum altitude 04:36:29 25° 352° (N) 1,734 8.2 7.3°
Drops below altitude 10° 04:41:19 10° 47° (NE) 2,511 10.7 7.9°
Sets 04:44:09 0° 60° (ENE) 3,387 11.9 8.3°
